Location: Unspecified
(0.0000°N, 0.0000°E)
Time: 20:10:57
(UTC+00:00)

STARLINK-34702 - Visible Passes

Search period start: 10 November 2025 00:00
Search period end: 20 November 2025 00:00
Orbit: 446 x 448 km, 53.2° (Epoch: 08 November)

Date Brightness Start Highest point End Pass type
(mag) Time Alt. Az. Time Alt. Az. Time Alt. Az.
14 Nov 4.6 19:13:20 10° NNW 19:15:08 28° NNW 19:15:08 28° NNW visible
15 Nov 3.6 18:34:12 10° NNW 18:37:30 39° ENE 18:40:47 10° SE visible
16 Nov 6.5 19:33:31 10° W 19:35:02 12° SW 19:36:32 10° SSW visible
17 Nov 6.0 18:52:42 10° WNW 18:55:24 21° SW 18:58:07 10° S visible
18 Nov 5.0 18:12:24 10° NW 18:15:40 36° SW 18:18:56 10° SSE visible
